Content
SEND FEEDBACK

Daily
Averages
Monthly
Summary
Canada

YELLOWKNIFE, NORTHWEST TERRITORIES


Home > North America > Canada > Northwest Territories
Elevation: 676 feet     Latitude: 62 28N     Longitude: 114 27W

WEATHER
 
SELECT A DAY
Number of Records: 194,971;   Date Range: 1/1/95 - 11/19/14
 
SHARE

PRINT THIS DATA

[ ← Previous Day ]
WEATHER ALMANAC - JUNE 29, 2013
[ Next Day → ]
[ °C ]   °F
We're sorry. There is no daily almanac available for Yellowknife, Northwest Territories on June 29, 2013.
WEATHER BY HOUR - JUNE 29, 2013
[ °C ]   °F
Local TimeTemperatureDewpointHumidityBarometerVisibilityWind DirectionWind SpeedGust SpeedPrecipitationEventsConditions
12:00 AM66.2 °F53.6 °F64 %30.07 in15.0 miSouth (190°)6.9 mphPartly Cloudy
1:00 AM62.6 °F55.4 °F77 %30.07 in15.0 miSouth (190°)3.5 mphPartly Cloudy
2:00 AM57.2 °F53.6 °F88 %30.08 in15.0 miSSW (210°)2.3 mphPartly Cloudy
3:00 AM59.0 °F53.6 °F82 %30.08 in15.0 miSouth (170°)3.5 mphPartly Cloudy
4:00 AM55.4 °F53.6 °F94 %30.08 in15.0 miCalmClear
5:00 AM57.2 °F55.4 °F94 %30.09 in15.0 miNW (310°)3.5 mphClear
6:00 AM62.6 °F55.4 °F77 %30.09 in15.0 miCalmClear
6:00 AM62.0 °F56.0 °F75 %30.09 in15.0 miNW (310°)2.3 mph
7:00 AM66.2 °F57.2 °F73 %30.09 in15.0 miCalmClear
8:00 AM69.8 °F59.0 °F68 %30.09 in15.0 miEast (100°)3.5 mphPartly Cloudy
9:00 AM71.6 °F53.6 °F53 %30.09 in15.0 miSouth (170°)4.6 mphClear
10:00 AM73.4 °F53.6 °F50 %30.08 in15.0 miSSE (160°)6.9 mphClear
11:00 AM77.0 °F51.8 °F41 %30.07 in15.0 miSouth (180°)9.2 mphClear
12:00 PM77.0 °F48.2 °F36 %30.07 in15.0 miSouth (170°)11.5 mphClear
12:00 PM78.0 °F48.0 °F25 %30.07 in15.0 miSouth (170°)10.4 mph
1:00 PM77.0 °F48.2 °F36 %30.07 in15.0 miSouth (190°)10.4 mphClear
2:00 PM77.0 °F55.4 °F47 %30.07 in15.0 miSouth (170°)11.5 mphClear
3:00 PM78.8 °F57.2 °F47 %30.06 in15.0 miSouth (180°)9.2 mphClear
4:00 PM78.8 °F57.2 °F47 %30.05 in15.0 miSouth (180°)10.4 mph17.3 mphPartly Cloudy
5:00 PM78.8 °F57.2 °F47 %30.04 in15.0 miSouth (190°)11.5 mph17.3 mphClear
6:00 PM78.8 °F55.4 °F44 %30.02 in15.0 miSSE (160°)11.5 mphClear
6:00 PM79.0 °F56.0 °F34 %30.02 in15.0 miSouth (170°)10.4 mph
7:00 PM78.8 °F55.4 °F44 %30.00 in15.0 miSouth (170°)11.5 mphPartly Cloudy
8:00 PM77.0 °F55.4 °F47 %29.99 in15.0 miSSE (160°)12.7 mphPartly Cloudy
9:00 PM75.2 °F55.4 °F50 %29.98 in15.0 miSouth (170°)10.4 mphPartly Cloudy
10:00 PM73.4 °F55.4 °F53 %29.97 in15.0 miSouth (170°)6.9 mphPartly Cloudy
11:00 PM69.8 °F55.4 °F60 %29.98 in15.0 miSW (220°)4.6 mphPartly Cloudy
Hourly data recorded from CYZF, located miles away from Yellowknife, Northwest Territories







STORIES FROM OUR PARTNERS